Zurück zum Katalog

COSMOS 2239

AktivMilitärPO
NORAD 22590·PAYLOAD·🇷🇺 Russia

Gestartet Apr 1, 1993 von Plesetsk Cosmodrome

Loading…

Nächste Überflüge (nächste 24 Stunden)

TLE

AktuellSource: Space-Track

Epoche: Sep 14, 2026, 05:52 UTC

1 22590U 93020A   26257.24498832  .00000036  00000-0  21489-4 0  9991
2 22590  82.9272  74.6012 0024003  47.1777 126.3148 13.75640851679021

Verfolge COSMOS 2239 in Echtzeit mit AllMySat

Download on the App Store